SEP911 OPSD-OPLA

Flight info

Callsign SEP911
Flight time N/A
Altitude 30000
Route DELDA J125 RN Z306 INDEK J121 AKBER
Aircraft B739/M-SDE2E3FGHIRWXY/LB1

Departure

Time 2026-04-25 02:09
Airport Skardu International Airport (OPSD)

Arrival

Time N/A
Airport Allama Iqbal International Airport (OPLA)
Time Latitude Longitude Altitude Speed Heading
2026-04-25 01:27 35.33238 75.54374 7355 ft 0 kts 12°
2026-04-25 02:02 35.33242 75.54379 7355 ft 1 kts 52°
2026-04-25 02:02 35.33236 75.54388 7361 ft 3 kts 143°
2026-04-25 02:03 35.33202 75.54417 7359 ft 6 kts 140°
2026-04-25 02:03 35.33201 75.54442 7362 ft 5 kts 59°
2026-04-25 02:03 35.33227 75.54492 7360 ft 7 kts 58°
2026-04-25 02:03 35.33252 75.54542 7363 ft 7 kts 58°
2026-04-25 02:04 35.33278 75.54591 7360 ft 7 kts 56°
2026-04-25 02:04 35.33296 75.54647 7361 ft 7 kts 99°
2026-04-25 02:04 35.33259 75.54686 7361 ft 7 kts 146°
2026-04-25 02:04 35.33219 75.54719 7364 ft 7 kts 147°
2026-04-25 02:05 35.33179 75.54750 7365 ft 7 kts 147°
2026-04-25 02:05 35.33139 75.54780 7363 ft 7 kts 147°
2026-04-25 02:05 35.33102 75.54809 7363 ft 7 kts 147°
2026-04-25 02:05 35.33044 75.54855 7361 ft 13 kts 147°
2026-04-25 02:06 35.32963 75.54920 7365 ft 14 kts 147°
2026-04-25 02:06 35.32882 75.54983 7367 ft 13 kts 147°
2026-04-25 02:06 35.32806 75.55044 7368 ft 13 kts 147°
2026-04-25 02:06 35.32731 75.55104 7370 ft 13 kts 147°
2026-04-25 02:07 35.32674 75.55172 7367 ft 11 kts 117°
2026-04-25 02:07 35.32634 75.55239 7367 ft 10 kts 142°
2026-04-25 02:07 35.32599 75.55246 7367 ft 4 kts 199°
2026-04-25 02:07 35.32583 75.55222 7367 ft 4 kts 260°
2026-04-25 02:08 35.32594 75.55211 7367 ft 0 kts 327°
2026-04-25 02:08 35.32651 75.55166 7368 ft 36 kts 327°
2026-04-25 02:08 35.33054 75.54848 7361 ft 100 kts 327°
2026-04-25 02:09 35.33800 75.54260 7354 ft 153 kts 327°
2026-04-25 02:09 35.34823 75.53462 7370 ft 192 kts 328°
2026-04-25 02:09 35.35941 75.52583 7992 ft 187 kts 323°
2026-04-25 02:09 35.37013 75.51617 8500 ft 196 kts 328°
2026-04-25 02:10 35.38170 75.50738 9114 ft 196 kts 329°
2026-04-25 02:10 35.39339 75.49858 9576 ft 198 kts 329°
2026-04-25 02:10 35.40521 75.48970 9974 ft 200 kts 329°
2026-04-25 02:10 35.41717 75.48074 10378 ft 203 kts 329°
2026-04-25 02:11 35.42972 75.47135 10534 ft 221 kts 329°
2026-04-25 02:11 35.44278 75.46012 10645 ft 240 kts 312°
2026-04-25 02:11 35.45279 75.44292 10872 ft 254 kts 304°
2026-04-25 02:11 35.46321 75.42486 11257 ft 264 kts 305°
2026-04-25 02:12 35.47396 75.40660 11823 ft 269 kts 306°
2026-04-25 02:12 35.48493 75.38802 12537 ft 269 kts 306°
2026-04-25 02:12 35.49596 75.36944 13209 ft 270 kts 306°
2026-04-25 02:12 35.50807 75.35127 13832 ft 274 kts 321°
2026-04-25 02:13 35.52475 75.34029 14324 ft 283 kts 337°
2026-04-25 02:13 35.54298 75.33026 14780 ft 290 kts 324°
2026-04-25 02:13 35.55641 75.31208 15339 ft 289 kts 299°
2026-04-25 02:13 35.56643 75.29076 16022 ft 288 kts 298°
2026-04-25 02:14 35.57643 75.26933 16603 ft 290 kts 298°
2026-04-25 02:14 35.58598 75.24748 17199 ft 291 kts 291°
2026-04-25 02:14 35.59310 75.22409 17739 ft 294 kts 288°
2026-04-25 02:14 35.59975 75.20032 18361 ft 295 kts 287°
2026-04-25 02:15 35.60639 75.17626 18753 ft 304 kts 287°
2026-04-25 02:15 35.61339 75.15090 18860 ft 322 kts 287°
2026-04-25 02:15 35.62081 75.12417 19027 ft 338 kts 287°
2026-04-25 02:15 35.62853 75.09653 19431 ft 344 kts 287°
2026-04-25 02:16 35.63634 75.06869 20034 ft 345 kts 287°
2026-04-25 02:16 35.64417 75.04082 20696 ft 344 kts 287°
2026-04-25 02:16 35.65195 75.01310 21301 ft 345 kts 286°
2026-04-25 02:16 35.65984 74.98494 21725 ft 350 kts 287°
2026-04-25 02:17 35.66777 74.95667 22317 ft 350 kts 286°
2026-04-25 02:17 35.67569 74.92840 22966 ft 350 kts 286°
2026-04-25 02:17 35.68364 74.89996 23523 ft 353 kts 286°
2026-04-25 02:17 35.69163 74.87135 23998 ft 354 kts 286°
2026-04-25 02:18 35.69967 74.84264 24403 ft 356 kts 286°
2026-04-25 02:18 35.70723 74.81358 24803 ft 357 kts 279°
2026-04-25 02:18 35.70839 74.78335 25224 ft 354 kts 263°
2026-04-25 02:18 35.70316 74.75380 25676 ft 354 kts 250°
2026-04-25 02:19 35.69231 74.72693 26112 ft 359 kts 242°
2026-04-25 02:19 35.67971 74.70026 26542 ft 360 kts 242°
2026-04-25 02:19 35.66717 74.67371 27138 ft 358 kts 242°
2026-04-25 02:19 35.65495 74.64726 27777 ft 354 kts 243°
2026-04-25 02:20 35.64294 74.62100 28369 ft 351 kts 243°
2026-04-25 02:20 35.62993 74.59560 28878 ft 354 kts 236°
2026-04-25 02:20 35.61372 74.57279 29324 ft 354 kts 229°
2026-04-25 02:20 35.59650 74.55119 29826 ft 353 kts 231°
2026-04-25 02:21 35.57980 74.52926 30276 ft 353 kts 232°
2026-04-25 02:21 35.54564 74.48393 30255 ft 368 kts 231°
2026-04-25 02:22 35.51013 74.43740 30273 ft 379 kts 231°
2026-04-25 02:22 35.47332 74.38931 30313 ft 396 kts 231°
2026-04-25 02:23 35.43502 74.33912 30259 ft 409 kts 231°
2026-04-25 02:23 35.39562 74.28750 30291 ft 419 kts 231°
2026-04-25 02:24 35.35537 74.23494 30288 ft 427 kts 231°
2026-04-25 02:24 35.31459 74.18182 30283 ft 429 kts 231°
2026-04-25 02:25 35.27355 74.12842 30248 ft 431 kts 231°
2026-04-25 02:25 35.23244 74.07499 30284 ft 431 kts 231°
2026-04-25 02:26 35.19167 74.02203 30241 ft 428 kts 231°
2026-04-25 02:26 35.15143 73.96891 30256 ft 424 kts 232°
2026-04-25 02:27 35.11174 73.91598 30301 ft 422 kts 232°
2026-04-25 02:27 35.07207 73.86328 30294 ft 420 kts 232°
2026-04-25 02:28 35.03239 73.81078 30300 ft 421 kts 232°
2026-04-25 02:28 34.99264 73.75822 30312 ft 422 kts 232°
2026-04-25 02:29 34.95270 73.70559 30298 ft 424 kts 232°
2026-04-25 02:29 34.91267 73.65290 30305 ft 423 kts 232°
2026-04-25 02:30 34.87263 73.60025 30241 ft 424 kts 232°
2026-04-25 02:30 34.83261 73.54774 30288 ft 421 kts 232°
2026-04-25 02:31 34.79037 73.49802 30156 ft 427 kts 222°
2026-04-25 02:31 34.73878 73.46179 30162 ft 436 kts 210°
2026-04-25 02:32 34.68157 73.43597 30184 ft 441 kts 206°
2026-04-25 02:32 34.62328 73.41109 30165 ft 446 kts 207°
2026-04-25 02:33 34.56497 73.38572 30116 ft 445 kts 208°
2026-04-25 02:33 34.50701 73.35992 30102 ft 443 kts 208°
2026-04-25 02:34 34.44925 73.33428 30080 ft 441 kts 208°
2026-04-25 02:34 34.39184 73.30890 30054 ft 438 kts 208°
2026-04-25 02:35 34.33501 73.28395 30021 ft 438 kts 207°
2026-04-25 02:35 34.27634 73.26275 30030 ft 444 kts 205°
2026-04-25 02:36 34.21737 73.23881 30054 ft 444 kts 208°
2026-04-25 02:36 34.15943 73.21307 30027 ft 443 kts 208°
2026-04-25 02:37 34.10176 73.18817 30033 ft 444 kts 208°
2026-04-25 02:37 34.04252 73.16584 30017 ft 452 kts 200°
2026-04-25 02:38 33.97890 73.15838 30004 ft 462 kts 192°
2026-04-25 02:38 33.91481 73.15354 30005 ft 460 kts 192°
2026-04-25 02:39 33.85112 73.14822 29996 ft 458 kts 193°
2026-04-25 02:39 33.78740 73.14240 29972 ft 461 kts 192°
2026-04-25 02:40 33.72312 73.13648 29974 ft 465 kts 192°
2026-04-25 02:40 33.65840 73.13064 29976 ft 468 kts 192°
2026-04-25 02:41 33.59299 73.12709 29958 ft 479 kts 183°
2026-04-25 02:41 33.52632 73.13837 29948 ft 485 kts 178°
2026-04-25 02:42 33.45966 73.15050 29941 ft 484 kts 179°
2026-04-25 02:42 33.39306 73.16162 29937 ft 483 kts 179°
2026-04-25 02:43 33.32662 73.17274 29945 ft 481 kts 179°
2026-04-25 02:43 33.26035 73.18389 29929 ft 480 kts 178°
2026-04-25 02:44 33.19423 73.19498 29936 ft 479 kts 179°
2026-04-25 02:44 33.12822 73.20601 29933 ft 479 kts 179°
2026-04-25 02:45 33.06229 73.21700 29907 ft 478 kts 178°
2026-04-25 02:45 32.99688 73.22789 29925 ft 478 kts 178°
2026-04-25 02:46 32.93113 73.23881 29911 ft 477 kts 178°
2026-04-25 02:46 32.87604 73.24797 29917 ft 477 kts 178°
2026-04-25 02:47 32.81021 73.25914 29903 ft 480 kts 175°
2026-04-25 02:47 32.74658 73.28614 29903 ft 494 kts 156°
2026-04-25 02:48 32.68981 73.33360 29831 ft 502 kts 146°
2026-04-25 02:48 32.66239 73.35924 29518 ft 501 kts 146°
2026-04-25 02:48 32.63552 73.38444 29244 ft 496 kts 146°
2026-04-25 02:48 32.60857 73.40953 28955 ft 489 kts 146°
2026-04-25 02:49 32.58179 73.43420 28366 ft 485 kts 146°
2026-04-25 02:49 32.55523 73.45846 27824 ft 479 kts 146°
2026-04-25 02:49 32.52886 73.48239 27261 ft 475 kts 147°
2026-04-25 02:49 32.50268 73.50608 26699 ft 471 kts 147°
2026-04-25 02:50 32.47672 73.52953 26134 ft 468 kts 147°
2026-04-25 02:50 32.45094 73.55280 25585 ft 464 kts 147°
2026-04-25 02:50 32.42533 73.57591 25029 ft 462 kts 147°
2026-04-25 02:50 32.39984 73.59892 24457 ft 459 kts 147°
2026-04-25 02:51 32.37452 73.62175 23921 ft 457 kts 147°
2026-04-25 02:51 32.34939 73.64442 23458 ft 452 kts 147°
2026-04-25 02:51 32.32447 73.66687 22844 ft 448 kts 147°
2026-04-25 02:51 32.29978 73.68911 22282 ft 444 kts 147°
2026-04-25 02:52 32.27532 73.71111 21735 ft 440 kts 147°
2026-04-25 02:52 32.25103 73.73295 21203 ft 436 kts 147°
2026-04-25 02:52 32.22701 73.75453 20676 ft 432 kts 147°
2026-04-25 02:52 32.20317 73.77593 20159 ft 429 kts 147°
2026-04-25 02:53 32.17952 73.79715 19635 ft 425 kts 146°
2026-04-25 02:53 32.15603 73.81821 19118 ft 423 kts 146°
2026-04-25 02:53 32.13268 73.83913 18580 ft 420 kts 146°
2026-04-25 02:53 32.10944 73.85994 18045 ft 418 kts 146°
2026-04-25 02:54 32.08636 73.88059 17480 ft 415 kts 146°
2026-04-25 02:54 32.06347 73.90107 16945 ft 410 kts 146°
2026-04-25 02:54 32.04102 73.92115 16420 ft 400 kts 146°
2026-04-25 02:54 32.01914 73.94072 15928 ft 390 kts 146°
2026-04-25 02:55 31.99768 73.95988 15463 ft 385 kts 146°
2026-04-25 02:55 31.97637 73.97887 14989 ft 383 kts 146°
2026-04-25 02:55 31.95518 73.99776 14523 ft 381 kts 146°
2026-04-25 02:55 31.93408 74.01659 14052 ft 380 kts 146°
2026-04-25 02:56 31.91355 74.03558 13789 ft 373 kts 145°
2026-04-25 02:56 31.89331 74.05454 13311 ft 371 kts 144°
2026-04-25 02:56 31.87317 74.07337 12836 ft 369 kts 144°
2026-04-25 02:56 31.85307 74.09198 12374 ft 366 kts 146°
2026-04-25 02:57 31.83093 74.10595 11798 ft 361 kts 164°
2026-04-25 02:57 31.80710 74.11514 11285 ft 361 kts 164°
2026-04-25 02:57 31.78348 74.12423 10809 ft 359 kts 164°
2026-04-25 02:57 31.75997 74.13339 10581 ft 350 kts 163°
2026-04-25 02:58 31.73717 74.14239 10381 ft 341 kts 163°
2026-04-25 02:58 31.71525 74.15112 10240 ft 331 kts 163°
2026-04-25 02:58 31.69408 74.15958 10096 ft 321 kts 163°
2026-04-25 02:58 31.67327 74.16792 9974 ft 311 kts 163°
2026-04-25 02:59 31.65307 74.17603 9834 ft 302 kts 163°
2026-04-25 02:59 31.63360 74.18385 9672 ft 294 kts 163°
2026-04-25 02:59 31.61387 74.19174 9179 ft 299 kts 163°
2026-04-25 02:59 31.59410 74.19966 8754 ft 299 kts 163°
2026-04-25 03:00 31.57462 74.20748 8407 ft 293 kts 163°
2026-04-25 03:00 31.55549 74.21515 8067 ft 288 kts 163°
2026-04-25 03:00 31.53671 74.22268 7738 ft 283 kts 163°
2026-04-25 03:00 31.51823 74.23008 7411 ft 279 kts 163°
2026-04-25 03:01 31.49991 74.23742 7063 ft 277 kts 163°
2026-04-25 03:01 31.48177 74.24468 6749 ft 274 kts 163°
2026-04-25 03:01 31.46381 74.25187 6464 ft 272 kts 163°
2026-04-25 03:01 31.44599 74.25899 6148 ft 270 kts 162°
2026-04-25 03:02 31.42818 74.26611 5837 ft 271 kts 162°
2026-04-25 03:02 31.41032 74.27325 5519 ft 272 kts 162°
2026-04-25 03:02 31.39239 74.28041 5223 ft 272 kts 162°
2026-04-25 03:02 31.37494 74.28739 5184 ft 260 kts 162°
2026-04-25 03:03 31.35811 74.29448 5051 ft 254 kts 155°
2026-04-25 03:03 31.34406 74.30712 4694 ft 259 kts 129°
2026-04-25 03:03 31.33497 74.32541 4264 ft 265 kts 109°
2026-04-25 03:03 31.33070 74.34631 4015 ft 262 kts 99°
2026-04-25 03:04 31.32858 74.36719 3794 ft 258 kts 88°
2026-04-25 03:04 31.33102 74.38792 3462 ft 258 kts 70°
2026-04-25 03:04 31.33909 74.40647 3134 ft 256 kts 44°
2026-04-25 03:05 31.37138 74.41935 2722 ft 252 kts 350°
2026-04-25 03:05 31.38873 74.41538 2304 ft 258 kts 352°
2026-04-25 03:05 31.40660 74.41236 2032 ft 260 kts 351°
2026-04-25 03:05 31.42476 74.40934 1655 ft 267 kts 352°
2026-04-25 03:06 31.44279 74.40780 1639 ft 252 kts
2026-04-25 03:06 31.45959 74.40814 1672 ft 241 kts
2026-04-25 03:06 31.47617 74.40937 1551 ft 238 kts
2026-04-25 03:06 31.49256 74.40805 1207 ft 237 kts 348°
2026-04-25 03:07 31.50890 74.40449 832 ft 240 kts 358°
2026-04-25 03:07 31.52526 74.40473 737 ft 230 kts 359°
2026-04-25 03:07 31.53614 74.40484 932 ft 241 kts